Retour au catalogue

ICEYE-X57

ActifScienceSSO
NORAD 64578·PAYLOAD·🇺🇸 United States

Lancé Jun 23, 2025 depuis Vandenberg Space Force Base

Loading…

Prochains Passages (prochaines 24 heures)

TLE

FraisSource: Space-Track

Époque: Sep 14, 2026, 22:30 UTC

1 64578U 25135BC  26257.93789921  .00003979  00000-0  31777-3 0  9992
2 64578  97.8198  14.7905 0001884  50.4616 309.6774 15.00845254 67488

Suivez ICEYE-X57 en temps réel avec AllMySat

Download on the App Store